Georgetown, SC

8:26 PM EDT on September 24, 2017 (GMT -0400)
Georgetown County

Weather History for KGGE - August, 2014

Change the Weather History Date:

Tuesday, August 12, 2014

  Actual Average Record
Temperature  
Mean Temperature 82 °F -  
Max Temperature 91 °F 89 °F 95 °F (2013)
Min Temperature 73 °F 69 °F 69 °F (2012)
Cooling Degree Days 17    
Growing Degree Days 32 (Base 50)    
Moisture  
Dew Point 77 °F    
Average Humidity 87    
Maximum Humidity 100    
Minimum Humidity 55    
Precipitation  
Precipitation 0.08 in - - ()
Sea Level Pressure  
Sea Level Pressure 29.89 in    
Wind  
Wind Speed 2 mph (SW)    
Max Wind Speed 14 mph    
Max Gust Speed 16 mph    
Visibility 9 miles    
Events Fog , Rain , Thunderstorm    
Averages and records for this station are not official NWS values.
T = Trace of Precipitation, MM = Missing Value Source: NWS Daily Summary

Daily Weather History Graph

Daily Weather History Graph

Search for Another Location

Airport or City:

Trip Planner

Search our weather history database for the weather conditions in past years. The results will help you decide how hot, cold, wet, or windy it might be!

Date:

Astronomy

Aug. 12, 2014 Rise Set
Actual Time 6:37 AM EDT 8:06 PM EDT
Civil Twilight 6:11 AM EDT 8:32 PM EDT
Nautical Twilight 5:39 AM EDT 9:04 PM EDT
Astronomical Twilight 5:06 AM EDT 9:37 PM EDT
Moon 9:23 PM EDT (8/12) 8:43 AM EDT (8/12)
Length of Visible Light 14h 21m
Length of Day
13h 28m
Waning Gibbous, 95% of the Moon is Illuminated
Aug 12
Waning Gibbous
Aug 17
Last Quarter
Aug 25
New
Sep 2
First Quarter
Sep 8
Full

Hourly Weather History & Observations

Time (EDT) Temp. Heat Index Dew Point Humidity Pressure Visibility Wind Dir Wind Speed Gust Speed Precip Events Conditions
12:15 AM - - - N/A% 29.93 in 10.0 mi Calm Calm - N/A   Clear
12:35 AM - - - N/A% 29.93 in 10.0 mi Calm Calm - N/A   Clear
12:55 AM - - - N/A% 29.93 in 10.0 mi Calm Calm - N/A   Clear
1:35 AM - - - N/A% 29.93 in 10.0 mi Calm Calm - N/A   Clear
1:55 AM - - - N/A% 29.93 in 10.0 mi Calm Calm - N/A   Mostly Cloudy
2:15 AM - - - N/A% 29.92 in 10.0 mi Calm Calm - N/A   Overcast
2:35 AM - - - N/A% 29.91 in 10.0 mi Calm Calm - N/A   Scattered Clouds
2:55 AM - - - N/A% 29.90 in 10.0 mi Calm Calm - N/A   Clear
3:15 AM - - - N/A% 29.90 in 10.0 mi Calm Calm - N/A   Clear
3:35 AM - - - N/A% 29.90 in 10.0 mi Calm Calm - N/A   Clear
3:55 AM - - - N/A% 29.90 in 10.0 mi Calm Calm - N/A   Clear
4:15 AM - - - N/A% 29.90 in 10.0 mi Calm Calm - N/A   Clear
4:35 AM - - - N/A% 29.89 in 0.2 mi Calm Calm - N/A Fog Fog
5:15 AM - - - N/A% 29.89 in 1.8 mi Calm Calm - N/A   Mostly Cloudy
5:55 AM - - - N/A% 29.88 in 1.2 mi Calm Calm - N/A   Overcast
6:15 AM - - - N/A% 29.88 in 3.0 mi Calm Calm - N/A   Mostly Cloudy
6:35 AM - - - N/A% 29.88 in 1.0 mi Calm Calm - N/A   Overcast
6:55 AM - - - N/A% 29.89 in 0.2 mi Calm Calm - N/A Fog Fog
7:15 AM - - - N/A% 29.89 in 4.0 mi Calm Calm - N/A   Haze
7:35 AM - - - N/A% 29.90 in 10.0 mi Calm Calm - N/A   Scattered Clouds
8:15 AM - - - N/A% 29.90 in 10.0 mi Calm Calm - N/A   Scattered Clouds
8:35 AM - - - N/A% 29.90 in 10.0 mi Calm Calm - N/A   Scattered Clouds
8:55 AM - - - N/A% 29.91 in 10.0 mi Calm Calm - N/A   Scattered Clouds
9:15 AM 78.8 °F - 78.8 °F 100% 29.90 in 10.0 mi Calm Calm - N/A   Scattered Clouds
9:35 AM 80.6 °F 87.1 °F 77.0 °F 89% 29.90 in 10.0 mi Calm Calm - N/A   Clear
9:55 AM 82.4 °F 90.9 °F 77.0 °F 84% 29.91 in 10.0 mi Calm Calm - N/A   Clear
10:15 AM 82.4 °F 90.9 °F 77.0 °F 84% 29.91 in 10.0 mi West 3.5 mph - N/A   Clear
10:35 AM 82.4 °F 90.9 °F 77.0 °F 84% 29.92 in 10.0 mi Calm Calm - N/A   Clear
11:15 AM 84.2 °F 94.1 °F 77.0 °F 79% 29.92 in 10.0 mi Calm Calm - N/A   Scattered Clouds
11:35 AM 86.0 °F 96.9 °F 77.0 °F 74% 29.92 in 10.0 mi WSW 3.5 mph - N/A   Mostly Cloudy
11:55 AM 86.0 °F 96.9 °F 77.0 °F 74% 29.92 in 10.0 mi Calm Calm - N/A   Mostly Cloudy
12:15 PM 87.8 °F 97.6 °F 75.2 °F 66% 29.91 in 10.0 mi West 8.1 mph - N/A   Scattered Clouds
1:35 PM 87.8 °F 97.6 °F 75.2 °F 66% 29.89 in 10.0 mi West 3.5 mph - N/A   Scattered Clouds
1:55 PM 89.6 °F 102.2 °F 77.0 °F 66% 29.88 in 10.0 mi ESE 5.8 mph - N/A   Mostly Cloudy
2:15 PM 89.6 °F 102.2 °F 77.0 °F 66% 29.87 in 10.0 mi South 3.5 mph - N/A   Mostly Cloudy
2:35 PM 91.4 °F 100.1 °F 73.4 °F 55% 29.85 in 10.0 mi SW 5.8 mph - N/A   Scattered Clouds
2:55 PM 87.8 °F 99.7 °F 77.0 °F 70% 29.85 in 10.0 mi South 8.1 mph - N/A   Mostly Cloudy
3:15 PM 87.8 °F 99.7 °F 77.0 °F 70% 29.85 in 10.0 mi SSE 12.7 mph - N/A   Overcast
3:35 PM 89.6 °F 104.7 °F 78.8 °F 70% 29.84 in 10.0 mi SSW 13.8 mph - N/A   Mostly Cloudy
4:15 PM 86.0 °F 96.9 °F 77.0 °F 74% 29.85 in 10.0 mi South 11.5 mph - N/A   Scattered Clouds
4:35 PM 84.2 °F 94.1 °F 77.0 °F 79% 29.85 in 10.0 mi SSW 9.2 mph 16.1 mph N/A Thunderstorm Thunderstorm
4:55 PM 82.4 °F 90.9 °F 77.0 °F 84% 29.86 in 10.0 mi SSW 10.4 mph - N/A Rain , Thunderstorm Light Thunderstorms and Rain
5:15 PM 78.8 °F - 75.2 °F 89% 29.86 in 10.0 mi West 4.6 mph - N/A Rain , Thunderstorm Light Thunderstorms and Rain
5:35 PM 77.0 °F - 77.0 °F 100% 29.86 in 10.0 mi Calm Calm - 0.01 in Rain , Thunderstorm Light Thunderstorms and Rain
5:55 PM 77.0 °F - 77.0 °F 100% 29.85 in 10.0 mi Calm Calm - 0.01 in   Clear
6:15 PM 77.0 °F - 77.0 °F 100% 29.83 in 10.0 mi Calm Calm - N/A Rain Light Rain
6:35 PM 78.8 °F - 78.8 °F 100% 29.83 in 7.0 mi Calm Calm - 0.01 in Rain Light Rain
6:55 PM 78.8 °F - 78.8 °F 100% 29.85 in 7.0 mi WNW 3.5 mph - 0.02 in Rain Light Rain
7:35 PM 78.8 °F - 78.8 °F 100% 29.86 in 10.0 mi Calm Calm - N/A   Clear
7:55 PM 77.0 °F - 77.0 °F 100% 29.87 in 10.0 mi West 3.5 mph - N/A   Clear
8:35 PM 77.0 °F - 77.0 °F 100% 29.88 in 10.0 mi Calm Calm - N/A   Clear
8:55 PM 77.0 °F - 77.0 °F 100% 29.88 in 10.0 mi West 4.6 mph - N/A   Clear
9:15 PM 77.0 °F - 77.0 °F 100% 29.88 in 10.0 mi WSW 3.5 mph - N/A   Clear
9:35 PM 77.0 °F - 77.0 °F 100% 29.88 in 10.0 mi Calm Calm - N/A   Clear
9:55 PM 77.0 °F - 77.0 °F 100% 29.89 in 10.0 mi WSW 3.5 mph - N/A   Light Drizzle
10:15 PM 77.0 °F - 77.0 °F 100% 29.89 in 10.0 mi West 4.6 mph - N/A Thunderstorm Unknown
10:35 PM 75.2 °F - 75.2 °F 100% 29.88 in 10.0 mi WSW 9.2 mph - N/A Rain , Thunderstorm Light Thunderstorms and Rain
10:55 PM 75.2 °F - 75.2 °F 100% 29.89 in 10.0 mi SW 6.9 mph - 0.02 in Rain , Thunderstorm Light Thunderstorms and Rain
11:15 PM 73.4 °F - 73.4 °F 100% 29.89 in 10.0 mi WSW 6.9 mph - 0.03 in Rain , Thunderstorm Light Thunderstorms and Rain
11:35 PM 73.4 °F - 73.4 °F 100% 29.87 in 10.0 mi SSW 4.6 mph - 0.03 in Thunderstorm Mostly Cloudy
11:55 PM 73.4 °F - 73.4 °F 100% 29.87 in 10.0 mi SW 4.6 mph - 0.03 in   Scattered Clouds